THOR BURNER 2 R/B

Satellite information

Favourite Embed

Satellite Type and Status

ROCKET BODYIN ORBIT

Key statistics

Satellite THOR BURNER 2 R/B at a glance.

Uptime

18361

Days in orbit

Revolutions

≈ 14.2

Per day

Orbit

SSO

Sun Synchronous Orbit

Inclination

98.7

Latest

Satellite identification and parameters

Extended collection of information and parameters for THOR BURNER 2 R/B.

Object identification

Identified? True

Debris? False

Object name: THOR BURNER 2 R/B

International designator: 1975-043B

Object number (NORAD): 7817

Object ID (CCSDS): 7817

Country: UNITED STATES OF AMERICA (US)

Current information (Y/N): Y

RCS size: LARGE

Orbital parameters

Period: 101.428 minutes

Inclination: 98.7027 deg

SMA: 7204.408 km

Apoapsis: 863.985 km

Periapsis: 788.561 km

RAAN: 87.7569 deg

Eccentricy: 0.00523458

Argument of periapsis: 230.0252 deg

Mean anomaly: 129.6322 deg

Mean motion: 14.19728559 rev/day

Mean motion (dot): 0.00000113 rev/day2

B* drag term: 0.000073082143 1/REarth

Two-line elements (TLE)

Creation date: Aug. 30, 2025, 3:38 a.m.

Reference frame: TEME

Reference center: EARTH

Epoch: Aug. 29, 2025, 8:02 p.m. UTC

TLE line 0: 0 THOR BURNER 2 R/B

TLE line 1: 1 07817U 75043B 25241.83498405 .00000113 00000-0 73082-4 0 9996

TLE line 2: 2 07817 98.7027 87.7569 0052346 230.0252 129.6322 14.19728559322052

Live tracking on map

Real-time ground track for satellite THOR BURNER 2 R/B.

In-orbit conjunctions

A list of the most updated potential collisions computed for object THOR BURNER 2 R/B.

Target Orbit TCA Probability of collision Miss distance Type
NOAA 16 DEB SSO 2025-06-17 13:30:01 0.0001199427 32.0 (m) DEBRIS
CZ-4 DEB SSO 2025-01-11 06:01:53 0.0001201709 606.0 (m) DEBRIS
CZ-6A DEB LEO 2024-11-26 00:13:25 0.0002597507 453.0 (m) DEBRIS
SL-3 R/B LEO 2024-11-15 15:45:48 0.0003134181 441.0 (m) ROCKET BODY
FENGYUN 1C DEB SSO 2024-11-13 21:18:15 0.0001829614 574.0 (m) DEBRIS

Associated space launch

Military meteorological satellite

THOR BURNER 2 R/B was lifted into orbit during the mission ‘Thor Burner 2A | DMSP-5C F2’, on board a Thor Burner 2A space rocket.

The launch took place on May 24, 1975, 3:22 a.m. from Space Launch Complex 10W.

For more information about the launch, click the button.

Launch to space Thor Burner 2A | DMSP-5C F2
Thor Burner 2A | DMSP-5C F2

Agency: N/A

Status: Launch Successful

Launch date: May 24, 1975, 3:22 a.m. UTC

Rocket: Thor Burner 2A

Launch pad: Space Launch Complex 10W

Location: Vandenberg SFB, CA, USA

...

Latest news about this satellite

There are no fresh news available about this satellite. Check back as we update our databases every day.


Newsletter sign-up

Weekly statistics, charts and insights to help you stay on top of the space industry.